| time (UTC) | temp F | wind direction | speed knots | gust knots | rain 1hr in | rain 24hr in | rain mn in | humidity % | barometer mb |
| 20260508060519 | 49 | 356 | 0.0 | 3.5 | 0.00 | 0.00 | 0.00 | 88 | 1015.2 |
| 20260508060035 | 49 | 316 | 0.0 | 3.5 | 0.00 | 0.00 | 0.00 | 88 | 1015.2 |
| 20260508055516 | 49 | 315 | 0.0 | 2.6 | 0.00 | 0.00 | 0.00 | 88 | 1015.1 |
| 20260508055016 | 49 | 326 | 0.0 | 2.6 | 0.00 | 0.00 | 0.00 | 88 | 1015.1 |
| 20260508054539 | 49 | 324 | 0.0 | 2.6 | 0.00 | 0.00 | 0.00 | 88 | 1015.0 |
| 20260508054015 | 49 | 330 | 0.0 | 2.6 | 0.00 | 0.00 | 0.00 | 88 | 1015.0 |
| 20260508053516 | 49 | 319 | 0.0 | 2.6 | 0.00 | 0.00 | 0.00 | 88 | 1015.1 |
| 20260508053032 | 49 | 354 | 0.0 | 2.6 | 0.00 | 0.00 | 0.00 | 88 | 1015.1 |
| 20260508052517 | 49 | 0 | 0.0 | 1.7 | 0.00 | 0.00 | 0.00 | 88 | 1015.1 |
| 20260508052016 | 48 | 333 | 0.0 | 1.7 | 0.00 | 0.00 | 0.00 | 88 | 1015.1 |
| 20260508051538 | 48 | 0 | 0.0 | 1.7 | 0.00 | 0.00 | 0.00 | 88 | 1015.1 |
| 20260508051017 | 49 | 321 | 0.0 | 0.9 | 0.00 | 0.00 | 0.00 | 88 | 1015.1 |
| 20260508050516 | 49 | 0 | 0.0 | 0.9 | 0.00 | 0.00 | 0.00 | 88 | 1015.1 |
| 20260508050035 | 49 | 320 | 0.0 | 1.7 | 0.00 | 0.00 | 0.00 | 88 | 1015.0 |
| 20260508045519 | 49 | 0 | 0.0 | 1.7 | 0.00 | 0.00 | 0.00 | 88 | 1015.0 |
| 20260508045016 | 49 | 316 | 0.0 | 1.7 | 0.00 | 0.00 | 0.00 | 88 | 1015.1 |
| 20260508044532 | 49 | 321 | 0.0 | 0.9 | 0.00 | 0.00 | 0.00 | 88 | 1015.1 |
| 20260508044017 | 49 | 317 | 0.0 | 1.7 | 0.00 | 0.00 | 0.00 | 88 | 1015.0 |
| 20260508043516 | 49 | 309 | 0.0 | 1.7 | 0.00 | 0.00 | 0.00 | 88 | 1015.0 |
| 20260508043033 | 49 | 297 | 0.0 | 1.7 | 0.00 | 0.00 | 0.00 | 88 | 1015.0 |
| 20260508042519 | 49 | 318 | 0.0 | 1.7 | 0.00 | 0.00 | 0.00 | 88 | 1014.9 |
| 20260508042015 | 49 | 316 | 0.0 | 4.3 | 0.00 | 0.00 | 0.00 | 88 | 1015.0 |
| 20260508041535 | 49 | 0 | 0.0 | 4.3 | 0.00 | 0.00 | 0.00 | 88 | 1014.9 |
| 20260508041016 | 49 | 326 | 0.0 | 3.5 | 0.00 | 0.00 | 0.00 | 87 | 1014.9 |
| 20260508040519 | 49 | 328 | 0.0 | 3.5 | 0.00 | 0.00 | 0.00 | 87 | 1014.9 |
| 20260508040038 | 49 | 0 | 0.0 | 2.6 | 0.00 | 0.00 | 0.00 | 87 | 1014.9 |
| 20260508035519 | 49 | 326 | 0.0 | 1.7 | 0.00 | 0.00 | 0.00 | 87 | 1015.0 |
| 20260508035019 | 49 | 323 | 0.0 | 1.7 | 0.00 | 0.00 | 0.00 | 86 | 1015.0 |
| 20260508034539 | 49 | 0 | 0.0 | 1.7 | 0.00 | 0.00 | 0.00 | 86 | 1015.1 |
| 20260508034015 | 49 | 321 | 0.0 | 0.9 | 0.00 | 0.00 | 0.00 | 86 | 1015.0 |
| 20260508033517 | 49 | 321 | 0.0 | 2.6 | 0.00 | 0.00 | 0.00 | 86 | 1015.1 |
| 20260508033034 | 49 | 0 | 0.0 | 2.6 | 0.00 | 0.00 | 0.00 | 86 | 1015.0 |
| 20260508032516 | 49 | 297 | 0.0 | 1.7 | 0.00 | 0.00 | 0.00 | 86 | 1015.1 |
| 20260508032019 | 49 | 321 | 0.0 | 3.5 | 0.00 | 0.00 | 0.00 | 85 | 1015.0 |
| 20260508031532 | 49 | 0 | 0.0 | 5.2 | 0.00 | 0.00 | 0.00 | 85 | 1015.1 |
| 20260508031015 | 49 | 0 | 0.0 | 5.2 | 0.00 | 0.00 | 0.00 | 85 | 1015.1 |
| 20260508030515 | 49 | 319 | 1.7 | 5.2 | 0.00 | 0.00 | 0.00 | 84 | 1015.1 |
| 20260508030034 | 49 | 310 | 0.0 | 1.7 | 0.00 | 0.00 | 0.00 | 84 | 1015.1 |
| 20260508025519 | 49 | 339 | 0.0 | 4.3 | 0.00 | 0.00 | 0.00 | 84 | 1015.1 |
| 20260508025017 | 49 | 0 | 0.0 | 7.8 | 0.00 | 0.00 | 0.00 | 84 | 1015.1 |
| 20260508024536 | 49 | 307 | 3.5 | 7.8 | 0.00 | 0.00 | 0.00 | 84 | 1015.2 |
| 20260508024016 | 49 | 301 | 2.6 | 6.1 | 0.00 | 0.00 | 0.00 | 85 | 1015.3 |
| 20260508023519 | 49 | 30 | 0.9 | 5.2 | 0.00 | 0.00 | 0.00 | 85 | 1015.3 |
| 20260508023036 | 49 | 356 | 1.7 | 5.2 | 0.00 | 0.00 | 0.00 | 85 | 1015.3 |
| 20260508022515 | 49 | 283 | 0.9 | 4.3 | 0.00 | 0.00 | 0.00 | 84 | 1015.3 |
| 20260508022016 | 49 | 305 | 0.9 | 4.3 | 0.00 | 0.00 | 0.00 | 83 | 1015.2 |
| 20260508021534 | 50 | 333 | 0.9 | 6.1 | 0.00 | 0.00 | 0.00 | 83 | 1015.3 |
| 20260508021016 | 49 | 111 | 1.7 | 6.1 | 0.00 | 0.00 | 0.00 | 82 | 1015.2 |
| 20260508020515 | 49 | 284 | 0.9 | 3.5 | 0.00 | 0.00 | 0.00 | 82 | 1015.2 |
| 20260508020037 | 49 | 307 | 0.0 | 2.6 | 0.00 | 0.00 | 0.00 | 82 | 1015.2 |
| 20260508015515 | 49 | 306 | 0.0 | 2.6 | 0.00 | 0.00 | 0.00 | 82 | 1015.2 |
| 20260508015015 | 49 | 0 | 0.0 | 4.3 | 0.00 | 0.00 | 0.00 | 83 | 1015.2 |
| 20260508014534 | 49 | 288 | 1.7 | 4.3 | 0.00 | 0.00 | 0.00 | 83 | 1015.3 |
| 20260508014017 | 49 | 318 | 0.9 | 3.5 | 0.00 | 0.00 | 0.00 | 83 | 1015.4 |
| 20260508013518 | 49 | 317 | 0.0 | 1.7 | 0.00 | 0.00 | 0.00 | 84 | 1015.4 |
| 20260508013037 | 49 | 321 | 0.0 | 1.7 | 0.00 | 0.00 | 0.00 | 84 | 1015.4 |
| 20260508012516 | 49 | 0 | 0.0 | 1.7 | 0.00 | 0.00 | 0.00 | 85 | 1015.3 |
| 20260508012019 | 49 | 0 | 0.0 | 1.7 | 0.00 | 0.00 | 0.00 | 85 | 1015.3 |
| 20260508011536 | 49 | 334 | 0.0 | 0.9 | 0.00 | 0.00 | 0.00 | 86 | 1015.4 |
| 20260508011015 | 50 | 0 | 0.0 | 1.7 | 0.00 | 0.00 | 0.00 | 87 | 1015.4 |
| 20260508010515 | 50 | 314 | 0.0 | 1.7 | 0.00 | 0.00 | 0.00 | 88 | 1015.4 |
| 20260508010034 | 50 | 316 | 0.0 | 3.5 | 0.00 | 0.00 | 0.00 | 88 | 1015.5 |
| 20260508005515 | 50 | 326 | 0.9 | 3.5 | 0.00 | 0.00 | 0.00 | 89 | 1015.5 |
| 20260508005016 | 50 | 56 | 0.0 | 1.7 | 0.00 | 0.00 | 0.00 | 88 | 1015.5 |
| 20260508004537 | 50 | 316 | 0.0 | 1.7 | 0.00 | 0.00 | 0.00 | 88 | 1015.5 |
| 20260508004018 | 50 | 0 | 0.0 | 1.7 | 0.00 | 0.00 | 0.00 | 88 | 1015.5 |
| 20260508003517 | 50 | 0 | 0.0 | 1.7 | 0.00 | 0.00 | 0.00 | 88 | 1015.5 |
| 20260508003033 | 50 | 0 | 0.0 | 0.9 | 0.00 | 0.00 | 0.00 | 88 | 1015.6 |
| 20260508002515 | 50 | 335 | 0.0 | 0.9 | 0.00 | 0.00 | 0.00 | 88 | 1015.6 |
| 20260508002015 | 50 | 0 | 0.0 | 0.9 | 0.00 | 0.00 | 0.00 | 88 | 1015.5 |
| 20260508001536 | 50 | 0 | 0.0 | 0.9 | 0.00 | 0.00 | 0.00 | 88 | 1015.6 |
| 20260508001019 | 50 | 0 | 0.0 | 0.9 | 0.00 | 0.00 | 0.00 | 88 | 1015.7 |
| 20260508000519 | 50 | 0 | 0.0 | 0.9 | 0.00 | 0.00 | 0.00 | 88 | 1015.6 |
| 20260508000034 | 50 | 0 | 0.0 | 0.9 | 0.00 | 0.00 | 0.00 | 87 | 1015.7 |
| 20260507235522 | 50 | 324 | 0.0 | 0.9 | 0.00 | 0.00 | 0.00 | 87 | 1015.7 |
| 20260507235015 | 50 | 332 | 0.0 | 0.9 | 0.00 | 0.00 | 0.00 | 87 | 1015.7 |
| 20260507234539 | 50 | 0 | 0.0 | 0.9 | 0.00 | 0.00 | 0.00 | 87 | 1015.7 |
| 20260507234015 | 50 | 319 | 0.0 | 2.6 | 0.00 | 0.00 | 0.00 | 87 | 1015.8 |
| 20260507233515 | 50 | 0 | 0.0 | 2.6 | 0.00 | 0.00 | 0.00 | 87 | 1015.7 |
| 20260507233033 | 50 | 332 | 0.9 | 2.6 | 0.00 | 0.00 | 0.00 | 87 | 1015.7 |
| 20260507232515 | 50 | 345 | 0.9 | 2.6 | 0.00 | 0.00 | 0.00 | 87 | 1015.8 |
| 20260507232015 | 50 | 326 | 0.9 | 2.6 | 0.00 | 0.00 | 0.00 | 87 | 1015.8 |
| 20260507231543 | 50 | 328 | 0.0 | 1.7 | 0.00 | 0.00 | 0.00 | 87 | 1015.9 |
| 20260507231024 | 50 | 0 | 0.0 | 0.9 | 0.00 | 0.00 | 0.00 | 87 | 1015.9 |
| 20260507230516 | 50 | 326 | 0.0 | 0.9 | 0.00 | 0.00 | 0.00 | 87 | 1015.9 |
| 20260507230034 | 50 | 0 | 0.0 | 0.9 | 0.00 | 0.00 | 0.00 | 87 | 1016.0 |
| 20260507225517 | 50 | 0 | 0.0 | 0.9 | 0.00 | 0.00 | 0.00 | 87 | 1016.0 |
| 20260507225017 | 50 | 0 | 0.0 | 0.9 | 0.00 | 0.00 | 0.00 | 87 | 1016.0 |
| 20260507224535 | 50 | 0 | 0.0 | 0.9 | 0.00 | 0.00 | 0.00 | 87 | 1015.9 |
| 20260507224015 | 50 | 0 | 0.0 | 0.9 | 0.00 | 0.00 | 0.00 | 87 | 1016.0 |
| 20260507223518 | 50 | 314 | 0.0 | 0.9 | 0.00 | 0.00 | 0.00 | 87 | 1015.9 |
| 20260507223032 | 50 | 324 | 0.0 | 0.9 | 0.00 | 0.00 | 0.00 | 87 | 1015.8 |
| 20260507222515 | 50 | 0 | 0.0 | 0.9 | 0.00 | 0.00 | 0.00 | 87 | 1015.8 |
| 20260507222017 | 49 | 0 | 0.0 | 0.9 | 0.00 | 0.00 | 0.00 | 87 | 1015.9 |
| 20260507221534 | 49 | 329 | 0.0 | 0.9 | 0.00 | 0.00 | 0.00 | 87 | 1015.9 |
| 20260507221015 | 49 | 0 | 0.0 | 0.9 | 0.00 | 0.00 | 0.00 | 87 | 1015.8 |
| 20260507220515 | 49 | 0 | 0.0 | 0.9 | 0.00 | 0.00 | 0.00 | 87 | 1015.8 |
| 20260507220037 | 49 | 0 | 0.0 | 0.9 | 0.00 | 0.00 | 0.00 | 87 | 1015.7 |
| 20260507215520 | 49 | 0 | 0.0 | 0.9 | 0.00 | 0.00 | 0.00 | 87 | 1015.8 |
| 20260507215017 | 49 | 0 | 0.0 | 0.0 | 0.00 | 0.00 | 0.00 | 87 | 1015.8 |
| 20260507214534 | 49 | 0 | 0.0 | 0.9 | 0.00 | 0.00 | 0.00 | 86 | 1015.9 |
| 20260507214023 | 49 | 0 | 0.0 | 0.9 | 0.00 | 0.00 | 0.00 | 86 | 1015.9 |
| 20260507213516 | 49 | 0 | 0.0 | 0.9 | 0.00 | 0.00 | 0.00 | 86 | 1016.0 |
| 20260507213042 | 50 | 0 | 0.0 | 0.9 | 0.00 | 0.00 | 0.00 | 87 | 1015.9 |
| 20260507212520 | 50 | 0 | 0.0 | 0.0 | 0.00 | 0.00 | 0.00 | 86 | 1016.0 |
| 20260507212017 | 50 | 0 | 0.0 | 0.0 | 0.00 | 0.00 | 0.00 | 86 | 1015.9 |
| 20260507211536 | 50 | 0 | 0.0 | 0.9 | 0.00 | 0.00 | 0.00 | 86 | 1015.8 |
| 20260507211018 | 50 | 0 | 0.0 | 0.9 | 0.00 | 0.00 | 0.00 | 85 | 1015.7 |
| 20260507210521 | 50 | 0 | 0.0 | 0.9 | 0.00 | 0.00 | 0.00 | 85 | 1015.7 |
| 20260507210034 | 51 | 0 | 0.0 | 0.9 | 0.00 | 0.00 | 0.00 | 84 | 1015.7 |
| 20260507205515 | 51 | 0 | 0.0 | 0.9 | 0.00 | 0.00 | 0.00 | 84 | 1015.7 |
| 20260507205016 | 51 | 0 | 0.0 | 0.9 | 0.00 | 0.00 | 0.00 | 83 | 1015.7 |
| 20260507204534 | 51 | 322 | 0.0 | 0.9 | 0.00 | 0.00 | 0.00 | 83 | 1015.6 |
| 20260507204015 | 51 | 0 | 0.0 | 0.0 | 0.00 | 0.00 | 0.00 | 82 | 1015.6 |
| 20260507203525 | 51 | 0 | 0.0 | 0.0 | 0.00 | 0.00 | 0.00 | 82 | 1015.6 |
| 20260507203038 | 51 | 0 | 0.0 | 0.0 | 0.00 | 0.00 | 0.00 | 81 | 1015.6 |
| 20260507202518 | 51 | 0 | 0.0 | 0.9 | 0.00 | 0.00 | 0.00 | 81 | 1015.6 |
| 20260507202016 | 51 | 0 | 0.0 | 0.9 | 0.00 | 0.00 | 0.00 | 81 | 1015.5 |
| 20260507201533 | 51 | 0 | 0.0 | 0.0 | 0.00 | 0.00 | 0.00 | 81 | 1015.5 |
| 20260507201019 | 51 | 0 | 0.0 | 0.0 | 0.00 | 0.00 | 0.00 | 80 | 1015.4 |
| 20260507200516 | 51 | 0 | 0.0 | 1.7 | 0.00 | 0.00 | 0.00 | 80 | 1015.4 |
| 20260507200034 | 51 | 0 | 0.0 | 2.6 | 0.00 | 0.00 | 0.00 | 79 | 1015.3 |
| 20260507195515 | 51 | 335 | 0.9 | 2.6 | 0.00 | 0.00 | 0.00 | 80 | 1015.2 |
| 20260507195015 | 50 | 333 | 0.0 | 1.7 | 0.00 | 0.00 | 0.00 | 80 | 1015.2 |
| 20260507194534 | 50 | 336 | 0.9 | 2.6 | 0.00 | 0.00 | 0.00 | 80 | 1015.1 |
| 20260507194015 | 50 | 333 | 0.9 | 2.6 | 0.00 | 0.00 | 0.00 | 80 | 1015.2 |
| 20260507193520 | 50 | 333 | 0.9 | 1.7 | 0.00 | 0.00 | 0.00 | 80 | 1015.3 |
| 20260507193032 | 50 | 334 | 0.9 | 1.7 | 0.00 | 0.00 | 0.00 | 82 | 1015.2 |
| 20260507192515 | 50 | 333 | 0.9 | 1.7 | 0.00 | 0.00 | 0.00 | 82 | 1015.1 |
| 20260507192016 | 51 | 334 | 0.0 | 1.7 | 0.00 | 0.00 | 0.00 | 82 | 1015.1 |
| 20260507191532 | 51 | 0 | 0.0 | 2.6 | 0.00 | 0.00 | 0.00 | 82 | 1015.1 |
| 20260507191015 | 51 | 334 | 0.9 | 2.6 | 0.00 | 0.00 | 0.00 | 81 | 1015.2 |
| 20260507190516 | 52 | 0 | 0.0 | 0.9 | 0.00 | 0.00 | 0.00 | 81 | 1015.1 |
| 20260507190034 | 52 | 0 | 0.0 | 0.9 | 0.00 | 0.00 | 0.00 | 81 | 1015.2 |
| 20260507185515 | 52 | 0 | 0.0 | 0.0 | 0.00 | 0.00 | 0.00 | 80 | 1015.1 |
| 20260507185015 | 53 | 0 | 0.0 | 0.0 | 0.00 | 0.00 | 0.00 | 80 | 1015.2 |
| 20260507184532 | 53 | 0 | 0.0 | 0.0 | 0.00 | 0.00 | 0.00 | 80 | 1015.2 |
| 20260507184016 | 53 | 0 | 0.0 | 0.0 | 0.00 | 0.00 | 0.00 | 80 | 1015.1 |
| 20260507183515 | 53 | 0 | 0.0 | 0.0 | 0.00 | 0.00 | 0.00 | 79 | 1015.2 |
| 20260507183034 | 53 | 0 | 0.0 | 0.0 | 0.00 | 0.00 | 0.00 | 79 | 1015.2 |
| 20260507182515 | 54 | 0 | 0.0 | 0.0 | 0.00 | 0.00 | 0.00 | 78 | 1015.2 |
| 20260507182016 | 54 | 0 | 0.0 | 0.9 | 0.00 | 0.00 | 0.00 | 77 | 1015.2 |
| 20260507181534 | 54 | 0 | 0.0 | 0.9 | 0.00 | 0.00 | 0.00 | 76 | 1015.2 |
| 20260507181016 | 55 | 0 | 0.0 | 0.9 | 0.00 | 0.00 | 0.00 | 76 | 1015.2 |
| 20260507180516 | 54 | 0 | 0.0 | 0.9 | 0.00 | 0.00 | 0.00 | 76 | 1015.2 |
| 20260507180031 | 54 | 0 | 0.0 | 0.9 | 0.00 | 0.00 | 0.00 | 75 | 1015.3 |
| 20260507175516 | 55 | 0 | 0.0 | 0.9 | 0.00 | 0.00 | 0.00 | 74 | 1015.2 |
| 20260507175016 | 54 | 0 | 0.0 | 0.9 | 0.00 | 0.00 | 0.00 | 76 | 1015.2 |
| 20260507174530 | 54 | 0 | 0.0 | 0.9 | 0.00 | 0.00 | 0.00 | 75 | 1015.2 |
| 20260507174016 | 54 | 331 | 0.0 | 0.9 | 0.00 | 0.00 | 0.00 | 74 | 1015.3 |
| 20260507173515 | 55 | 0 | 0.0 | 0.9 | 0.00 | 0.00 | 0.00 | 75 | 1015.3 |
| 20260507173040 | 55 | 0 | 0.0 | 0.9 | 0.00 | 0.00 | 0.00 | 75 | 1015.3 |
| 20260507172516 | 55 | 325 | 0.0 | 1.7 | 0.00 | 0.00 | 0.00 | 76 | 1015.3 |
| 20260507172021 | 54 | 0 | 0.0 | 1.7 | 0.00 | 0.00 | 0.00 | 74 | 1015.3 |
| 20260507171530 | 55 | 320 | 0.0 | 1.7 | 0.00 | 0.00 | 0.00 | 78 | 1015.3 |
| 20260507171015 | 54 | 311 | 0.9 | 3.5 | 0.00 | 0.00 | 0.00 | 77 | 1015.3 |
| 20260507170515 | 54 | 314 | 0.9 | 6.1 | 0.00 | 0.00 | 0.00 | 77 | 1015.3 |
| 20260507170034 | 54 | 275 | 0.9 | 6.1 | 0.00 | 0.00 | 0.00 | 78 | 1015.3 |
| 20260507165515 | 54 | 307 | 0.9 | 6.1 | 0.00 | 0.00 | 0.00 | 79 | 1015.4 |
| 20260507165016 | 55 | 312 | 2.6 | 6.1 | 0.00 | 0.00 | 0.00 | 78 | 1015.4 |
| 20260507164532 | 56 | 300 | 3.5 | 6.1 | 0.00 | 0.00 | 0.00 | 78 | 1015.4 |
| 20260507164015 | 56 | 352 | 1.7 | 6.1 | 0.00 | 0.00 | 0.00 | 78 | 1015.4 |
| 20260507163516 | 56 | 336 | 1.7 | 4.3 | 0.00 | 0.00 | 0.00 | 78 | 1015.4 |
| 20260507163035 | 55 | 134 | 2.6 | 5.2 | 0.00 | 0.00 | 0.00 | 79 | 1015.4 |
| 20260507162517 | 55 | 309 | 2.6 | 5.2 | 0.00 | 0.00 | 0.00 | 78 | 1015.3 |
| 20260507162016 | 56 | 304 | 0.9 | 5.2 | 0.00 | 0.00 | 0.00 | 78 | 1015.4 |
| 20260507161535 | 57 | 323 | 2.6 | 5.2 | 0.00 | 0.00 | 0.00 | 76 | 1015.3 |
| 20260507161015 | 58 | 296 | 0.9 | 4.3 | 0.00 | 0.00 | 0.00 | 77 | 1015.2 |
| 20260507160517 | 58 | 297 | 1.7 | 4.3 | 0.00 | 0.00 | 0.00 | 77 | 1015.3 |
| 20260507160035 | 58 | 283 | 0.9 | 3.5 | 0.00 | 0.00 | 0.00 | 76 | 1015.3 |
| 20260507155516 | 57 | 305 | 1.7 | 3.5 | 0.00 | 0.00 | 0.00 | 75 | 1015.3 |
| 20260507155019 | 58 | 314 | 1.7 | 5.2 | 0.00 | 0.00 | 0.00 | 76 | 1015.3 |
| 20260507154535 | 57 | 302 | 0.9 | 6.1 | 0.00 | 0.00 | 0.00 | 78 | 1015.3 |
| 20260507154015 | 57 | 300 | 1.7 | 6.1 | 0.00 | 0.00 | 0.00 | 77 | 1015.3 |
| 20260507153520 | 57 | 276 | 0.9 | 6.1 | 0.00 | 0.00 | 0.00 | 80 | 1015.4 |
| 20260507153035 | 56 | 303 | 2.6 | 5.2 | 0.00 | 0.00 | 0.00 | 79 | 1015.3 |
| 20260507152515 | 56 | 281 | 3.5 | 7.0 | 0.00 | 0.00 | 0.00 | 77 | 1015.3 |
| 20260507152016 | 56 | 283 | 2.6 | 7.0 | 0.00 | 0.00 | 0.00 | 78 | 1015.3 |
| 20260507151537 | 56 | 265 | 3.5 | 6.1 | 0.00 | 0.00 | 0.00 | 77 | 1015.2 |
| 20260507151016 | 57 | 276 | 1.7 | 7.0 | 0.00 | 0.00 | 0.00 | 75 | 1015.2 |
| 20260507150521 | 56 | 287 | 2.6 | 7.0 | 0.00 | 0.00 | 0.00 | 72 | 1015.3 |
| 20260507150035 | 57 | 290 | 2.6 | 7.0 | 0.00 | 0.00 | 0.00 | 72 | 1015.3 |
| 20260507145519 | 57 | 293 | 2.6 | 7.0 | 0.00 | 0.00 | 0.00 | 75 | 1015.3 |
| 20260507145015 | 57 | 290 | 2.6 | 7.0 | 0.00 | 0.00 | 0.00 | 75 | 1015.3 |
| 20260507144549 | 57 | 257 | 2.6 | 7.0 | 0.00 | 0.00 | 0.00 | 74 | 1015.2 |
| 20260507144015 | 58 | 306 | 0.9 | 5.2 | 0.00 | 0.00 | 0.00 | 73 | 1015.3 |
| 20260507143518 | 58 | 16 | 2.6 | 5.2 | 0.00 | 0.00 | 0.00 | 75 | 1015.3 |
| 20260507143032 | 57 | 300 | 0.9 | 7.0 | 0.00 | 0.00 | 0.00 | 76 | 1015.3 |
| 20260507142516 | 57 | 0 | 0.9 | 7.0 | 0.00 | 0.00 | 0.00 | 76 | 1015.4 |
| 20260507142024 | 56 | 298 | 3.5 | 6.1 | 0.00 | 0.00 | 0.00 | 73 | 1015.4 |
| 20260507141535 | 56 | 269 | 3.5 | 6.1 | 0.00 | 0.00 | 0.00 | 72 | 1015.4 |
| 20260507141015 | 56 | 314 | 2.6 | 6.1 | 0.00 | 0.00 | 0.00 | 74 | 1015.5 |
| 20260507140515 | 57 | 289 | 3.5 | 6.1 | 0.00 | 0.00 | 0.00 | 75 | 1015.6 |
| 20260507140037 | 57 | 295 | 0.9 | 4.3 | 0.00 | 0.00 | 0.00 | 76 | 1015.7 |
| 20260507135517 | 57 | 300 | 1.7 | 5.2 | 0.00 | 0.00 | 0.00 | 74 | 1015.7 |
| 20260507135018 | 57 | 305 | 2.6 | 5.2 | 0.00 | 0.00 | 0.00 | 74 | 1015.8 |
| 20260507134537 | 58 | 300 | 2.6 | 5.2 | 0.00 | 0.00 | 0.00 | 75 | 1015.7 |
| 20260507134018 | 58 | 276 | 1.7 | 7.0 | 0.00 | 0.00 | 0.00 | 77 | 1015.7 |
| 20260507133517 | 57 | 283 | 1.7 | 7.0 | 0.00 | 0.00 | 0.00 | 75 | 1015.7 |
| 20260507133036 | 56 | 281 | 1.7 | 6.1 | 0.00 | 0.00 | 0.00 | 77 | 1015.7 |
| 20260507132518 | 56 | 293 | 2.6 | 7.0 | 0.00 | 0.00 | 0.00 | 75 | 1015.6 |
| 20260507132016 | 56 | 297 | 3.5 | 7.0 | 0.00 | 0.00 | 0.00 | 78 | 1015.7 |
| 20260507131534 | 56 | 275 | 1.7 | 6.1 | 0.00 | 0.00 | 0.00 | 76 | 1015.6 |
| 20260507131017 | 57 | 284 | 1.7 | 6.1 | 0.00 | 0.00 | 0.00 | 75 | 1015.6 |
| 20260507130515 | 57 | 309 | 1.7 | 7.0 | 0.00 | 0.00 | 0.00 | 77 | 1015.6 |
| 20260507130035 | 56 | 248 | 2.6 | 7.8 | 0.00 | 0.00 | 0.00 | 77 | 1015.6 |
| 20260507125516 | 56 | 236 | 2.6 | 7.8 | 0.00 | 0.00 | 0.00 | 78 | 1015.6 |
| 20260507125017 | 55 | 299 | 3.5 | 7.8 | 0.00 | 0.00 | 0.00 | 81 | 1015.6 |
| 20260507124531 | 56 | 313 | 2.6 | 7.8 | 0.00 | 0.00 | 0.00 | 81 | 1015.5 |
| 20260507124018 | 55 | 299 | 3.5 | 7.8 | 0.00 | 0.00 | 0.00 | 81 | 1015.7 |
| 20260507123515 | 55 | 257 | 4.3 | 7.8 | 0.00 | 0.00 | 0.00 | 81 | 1015.7 |
| 20260507123036 | 56 | 280 | 5.2 | 8.7 | 0.00 | 0.00 | 0.00 | 80 | 1015.7 |
| 20260507122518 | 56 | 284 | 4.3 | 8.7 | 0.00 | 0.00 | 0.00 | 80 | 1015.6 |
| 20260507122016 | 56 | 302 | 5.2 | 7.8 | 0.00 | 0.00 | 0.00 | 79 | 1015.6 |
| 20260507121535 | 58 | 281 | 2.6 | 7.0 | 0.00 | 0.00 | 0.00 | 78 | 1015.6 |
| 20260507121018 | 58 | 264 | 1.7 | 6.1 | 0.00 | 0.00 | 0.00 | 78 | 1015.7 |
| 20260507120515 | 58 | 284 | 2.6 | 7.0 | 0.00 | 0.00 | 0.00 | 78 | 1015.7 |
| 20260507120035 | 57 | 305 | 1.7 | 7.0 | 0.00 | 0.00 | 0.00 | 79 | 1015.7 |
| 20260507115519 | 57 | 153 | 2.6 | 7.8 | 0.00 | 0.00 | 0.00 | 78 | 1015.7 |
| 20260507115016 | 57 | 301 | 3.5 | 7.8 | 0.00 | 0.00 | 0.00 | 78 | 1015.8 |
| 20260507114535 | 57 | 295 | 3.5 | 7.0 | 0.00 | 0.00 | 0.00 | 78 | 1015.7 |
| 20260507114015 | 57 | 291 | 2.6 | 7.0 | 0.00 | 0.00 | 0.00 | 77 | 1015.8 |
| 20260507113516 | 57 | 269 | 2.6 | 6.1 | 0.00 | 0.00 | 0.00 | 79 | 1015.8 |
| 20260507113033 | 57 | 323 | 1.7 | 6.1 | 0.00 | 0.00 | 0.00 | 78 | 1015.8 |
| 20260507112518 | 56 | 300 | 1.7 | 7.0 | 0.00 | 0.00 | 0.00 | 79 | 1015.7 |
| 20260507112017 | 56 | 240 | 1.7 | 7.0 | 0.00 | 0.00 | 0.00 | 80 | 1015.7 |
| 20260507111543 | 56 | 314 | 3.5 | 7.8 | 0.00 | 0.00 | 0.00 | 78 | 1015.7 |
| 20260507111018 | 56 | 147 | 3.5 | 7.8 | 0.00 | 0.00 | 0.00 | 78 | 1015.8 |
| 20260507110518 | 56 | 320 | 2.6 | 7.8 | 0.00 | 0.00 | 0.00 | 77 | 1015.9 |
| 20260507110030 | 57 | 306 | 2.6 | 8.7 | 0.00 | 0.00 | 0.00 | 79 | 1015.8 |
| 20260507105514 | 56 | 323 | 1.7 | 8.7 | 0.00 | 0.00 | 0.00 | 79 | 1015.7 |
| 20260507105017 | 56 | 304 | 2.6 | 6.1 | 0.00 | 0.00 | 0.00 | 78 | 1015.8 |
| 20260507104536 | 56 | 287 | 2.6 | 6.1 | 0.00 | 0.00 | 0.00 | 78 | 1015.9 |
| 20260507104019 | 56 | 24 | 2.6 | 7.8 | 0.00 | 0.00 | 0.00 | 79 | 1015.9 |
| 20260507103518 | 55 | 278 | 4.3 | 7.8 | 0.00 | 0.00 | 0.00 | 78 | 1015.9 |
| 20260507103039 | 56 | 331 | 2.6 | 7.0 | 0.00 | 0.00 | 0.00 | 80 | 1015.9 |
| 20260507102517 | 55 | 283 | 3.5 | 7.0 | 0.00 | 0.00 | 0.00 | 79 | 1015.9 |
| 20260507102016 | 55 | 61 | 3.5 | 7.0 | 0.00 | 0.00 | 0.00 | 78 | 1015.8 |
| 20260507101544 | 55 | 181 | 1.7 | 7.0 | 0.00 | 0.00 | 0.00 | 80 | 1015.8 |
| 20260507101016 | 55 | 288 | 2.6 | 7.0 | 0.00 | 0.00 | 0.00 | 79 | 1015.8 |
| 20260507100516 | 56 | 94 | 1.7 | 8.7 | 0.00 | 0.00 | 0.00 | 78 | 1015.8 |
| 20260507100040 | 55 | 338 | 3.5 | 8.7 | 0.00 | 0.00 | 0.00 | 79 | 1015.7 |
| 20260507095518 | 55 | 286 | 4.3 | 10.4 | 0.00 | 0.00 | 0.00 | 79 | 1015.7 |
| 20260507095014 | 55 | 346 | 3.5 | 10.4 | 0.00 | 0.00 | 0.00 | 79 | 1015.7 |
| 20260507094540 | 55 | 217 | 5.2 | 8.7 | 0.00 | 0.00 | 0.00 | 80 | 1015.7 |
| 20260507094015 | 55 | 122 | 4.3 | 8.7 | 0.00 | 0.00 | 0.00 | 80 | 1015.7 |
| 20260507093515 | 55 | 25 | 3.5 | 9.6 | 0.00 | 0.00 | 0.00 | 80 | 1015.6 |
| 20260507093042 | 55 | 125 | 4.3 | 9.6 | 0.00 | 0.00 | 0.00 | 80 | 1015.6 |
| 20260507092518 | 54 | 205 | 4.3 | 9.6 | 0.00 | 0.00 | 0.00 | 80 | 1015.6 |
| 20260507092018 | 54 | 146 | 5.2 | 9.6 | 0.00 | 0.00 | 0.00 | 79 | 1015.6 |
| 20260507091539 | 55 | 342 | 5.2 | 9.6 | 0.00 | 0.00 | 0.00 | 81 | 1015.6 |
| 20260507091018 | 54 | 153 | 5.2 | 9.6 | 0.00 | 0.00 | 0.00 | 80 | 1015.7 |
| 20260507090518 | 54 | 188 | 3.5 | 7.8 | 0.00 | 0.00 | 0.00 | 80 | 1015.6 |
| 20260507090037 | 53 | 301 | 4.3 | 8.7 | 0.00 | 0.00 | 0.00 | 80 | 1015.6 |
| 20260507085515 | 53 | 308 | 4.3 | 10.4 | 0.00 | 0.00 | 0.00 | 79 | 1015.5 |
| 20260507085017 | 53 | 122 | 5.2 | 10.4 | 0.00 | 0.00 | 0.00 | 79 | 1015.5 |
| 20260507084537 | 53 | 72 | 3.5 | 7.8 | 0.00 | 0.00 | 0.00 | 78 | 1015.5 |
| 20260507084018 | 54 | 166 | 4.3 | 9.6 | 0.00 | 0.00 | 0.00 | 78 | 1015.5 |
| 20260507083517 | 54 | 96 | 5.2 | 9.6 | 0.00 | 0.00 | 0.00 | 78 | 1015.5 |
| 20260507083032 | 54 | 330 | 3.5 | 8.7 | 0.00 | 0.00 | 0.00 | 78 | 1015.5 |
| 20260507082517 | 54 | 170 | 4.3 | 8.7 | 0.00 | 0.00 | 0.00 | 79 | 1015.5 |
| 20260507082015 | 53 | 35 | 4.3 | 7.8 | 0.00 | 0.00 | 0.00 | 78 | 1015.4 |
| 20260507081536 | 53 | 113 | 3.5 | 7.8 | 0.00 | 0.00 | 0.00 | 81 | 1015.4 |
| 20260507081018 | 53 | 184 | 3.5 | 7.8 | 0.00 | 0.00 | 0.00 | 80 | 1015.5 |
| 20260507080515 | 53 | 63 | 4.3 | 8.7 | 0.00 | 0.00 | 0.00 | 80 | 1015.5 |
| 20260507080043 | 53 | 101 | 4.3 | 8.7 | 0.00 | 0.00 | 0.00 | 81 | 1015.4 |
| 20260507075518 | 52 | 101 | 4.3 | 10.4 | 0.00 | 0.00 | 0.00 | 83 | 1015.3 |
| 20260507075022 | 52 | 76 | 5.2 | 10.4 | 0.00 | 0.00 | 0.00 | 82 | 1015.3 |
| 20260507074534 | 52 | 78 | 6.1 | 10.4 | 0.00 | 0.00 | 0.00 | 83 | 1015.4 |
| 20260507074016 | 52 | 94 | 6.1 | 9.6 | 0.00 | 0.00 | 0.00 | 84 | 1015.3 |
| 20260507073515 | 51 | 102 | 6.1 | 11.3 | 0.00 | 0.00 | 0.00 | 84 | 1015.2 |
| 20260507073036 | 50 | 105 | 6.1 | 11.3 | 0.00 | 0.00 | 0.00 | 84 | 1015.4 |
| 20260507072515 | 51 | 131 | 5.2 | 11.3 | 0.00 | 0.00 | 0.00 | 84 | 1015.4 |
| 20260507072018 | 51 | 106 | 5.2 | 11.3 | 0.00 | 0.00 | 0.00 | 84 | 1015.3 |
| 20260507071535 | 51 | 87 | 7.0 | 11.3 | 0.00 | 0.00 | 0.00 | 85 | 1015.2 |
| 20260507071016 | 51 | 111 | 5.2 | 9.6 | 0.00 | 0.00 | 0.00 | 86 | 1015.2 |
| 20260507070516 | 50 | 110 | 4.3 | 9.6 | 0.00 | 0.00 | 0.00 | 87 | 1015.1 |
| 20260507070036 | 50 | 128 | 5.2 | 9.6 | 0.00 | 0.00 | 0.00 | 87 | 1015.1 |
| 20260507065515 | 50 | 113 | 4.3 | 8.7 | 0.00 | 0.00 | 0.00 | 87 | 1015.1 |
| 20260507065015 | 49 | 39 | 3.5 | 8.7 | 0.00 | 0.00 | 0.00 | 87 | 1015.1 |
| 20260507064535 | 49 | 101 | 4.3 | 7.8 | 0.00 | 0.00 | 0.00 | 87 | 1015.1 |
| 20260507064018 | 49 | 321 | 3.5 | 7.8 | 0.00 | 0.00 | 0.00 | 87 | 1015.0 |
| 20260507063516 | 49 | 145 | 1.7 | 7.8 | 0.00 | 0.00 | 0.00 | 87 | 1015.1 |
| 20260507063042 | 49 | 326 | 3.5 | 7.8 | 0.00 | 0.00 | 0.00 | 86 | 1015.0 |
| 20260507062523 | 49 | 269 | 1.7 | 7.0 | 0.00 | 0.00 | 0.00 | 87 | 1015.0 |
| 20260507062018 | 49 | 31 | 3.5 | 9.6 | 0.00 | 0.00 | 0.00 | 87 | 1015.0 |
| 20260507061534 | 48 | 34 | 3.5 | 9.6 | 0.00 | 0.00 | 0.00 | 87 | 1015.0 |
| 20260507061018 | 48 | 219 | 3.5 | 9.6 | 0.00 | 0.00 | 0.00 | 87 | 1015.0 |